QPF
0.00 0.00 0.00 0.00 0.01 0.03 0.08 0.06 0.07 0.04 0.03 0.04 0.05 0.06 0.03 0.08 0.07 0.07 0.09 0.08 0.04 0.01 0.01 0.02 0.01 0.01 0.01 0.01 0.01 0.01 0.01 0.01 0.01 0.01 0.01 0.02 0.02 0.03 0.04 0.05 0.06 0.04 0.05 0.06 0.05 0.05 0.06 0.04 0.04
0.00 0.00 0.00 0.00 0.01 0.03 0.04 0.05 0.08 0.06 0.03 0.02 0.05 0.09 0.08 0.08 0.04 0.03 0.05 0.10 0.09 0.02 0.01 0.01 0.01 0.01 0.01 0.01 0.01 0.02 0.02 0.01 0.01 0.01 0.00 0.01 0.02 0.04 0.04 0.06 0.06 0.05 0.04 0.04 0.04 0.04 0.04 0.04 0.04
0.00 0.00 0.00 0.01 0.01 0.02 0.02 0.02 0.03 0.02 0.02 0.01 0.02 0.05 0.06 0.05 0.03 0.05 0.05 0.06 0.11 0.04 0.02 0.01 0.01 0.00 0.00 0.01 0.01 0.01 0.01 0.01 0.01 0.01 0.01 0.01 0.02 0.04 0.06 0.06 0.06 0.06 0.05 0.05 0.04 0.04 0.03 0.03 0.03
0.00 0.00 0.01 0.02 0.02 0.01 0.01 0.01 0.01 0.02 0.02 0.03 0.05 0.05 0.05 0.03 0.02 0.04 0.04 0.04 0.05 0.04 0.03 0.01 0.01 0.00 0.00 0.00 0.01 0.02 0.01 0.02 0.02 0.01 0.02 0.01 0.01 0.03 0.05 0.07 0.06 0.05 0.05 0.05 0.04 0.04 0.04 0.03 0.03
0.00 0.00 0.01 0.03 0.02 0.01 0.00 0.01 0.01 0.01 0.02 0.08 0.11 0.06 0.04 0.03 0.03 0.03 0.05 0.03 0.03 0.03 0.02 0.01 0.01 0.02 0.01 0.01 0.01 0.03 0.03 0.04 0.03 0.02 0.03 0.02 0.02 0.03 0.04 0.06 0.08 0.05 0.04 0.04 0.03 0.04 0.04 0.04 0.04
0.00 0.00 0.01 0.02 0.01 0.00 0.00 0.00 0.01 0.01 0.02 0.09 0.05 0.04 0.05 0.02 0.02 0.02 0.02 0.02 0.02 0.02 0.03 0.05 0.04 0.03 0.02 0.01 0.01 0.03 0.03 0.03 0.04 0.04 0.04 0.03 0.02 0.02 0.04 0.04 0.13 0.13 0.06 0.04 0.04 0.04 0.03 0.04 0.06
0.02 0.00 0.01 0.01 0.00 0.00 0.01 0.01 0.01 0.01 0.01 0.04 0.03 0.02 0.04 0.02 0.02 0.01 0.01 0.02 0.03 0.03 0.03 0.05 0.04 0.02 0.02 0.02 0.01 0.01 0.01 0.01 0.02 0.06 0.06 0.04 0.03 0.03 0.04 0.05 0.10 0.16 0.09 0.05 0.04 0.03 0.03 0.05 0.06
0.02 0.00 0.00 0.00 0.01 0.01 0.01 0.01 0.02 0.02 0.02 0.06 0.05 0.02 0.04 0.03 0.02 0.01 0.01 0.02 0.04 0.04 0.04 0.04 0.05 0.04 0.02 0.02 0.02 0.01 0.01 0.01 0.01 0.05 0.10 0.07 0.05 0.04 0.04 0.04 0.04 0.07 0.05 0.04 0.04 0.04 0.03 0.03 0.05
0.00 0.00 0.00 0.01 0.02 0.02 0.01 0.01 0.01 0.01 0.01 0.02 0.02 0.02 0.03 0.02 0.02 0.02 0.02 0.02 0.04 0.09 0.12 0.03 0.05 0.07 0.05 0.03 0.02 0.02 0.02 0.01 0.01 0.02 0.06 0.07 0.04 0.04 0.04 0.03 0.03 0.04 0.04 0.03 0.02 0.02 0.02 0.03 0.04
0.00 0.00 0.01 0.01 0.00 0.00 0.01 0.01 0.01 0.04 0.03 0.02 0.03 0.03 0.02 0.02 0.03 0.05 0.02 0.02 0.02 0.03 0.04 0.04 0.04 0.05 0.08 0.06 0.02 0.02 0.01 0.01 0.01 0.01 0.03 0.04 0.04 0.03 0.03 0.04 0.04 0.04 0.04 0.04 0.03 0.03 0.03 0.03 0.02
0.00 0.00 0.00 0.00 0.00 0.00 0.01 0.01 0.01 0.03 0.05 0.04 0.04 0.03 0.02 0.04 0.05 0.04 0.02 0.03 0.02 0.02 0.02 0.03 0.03 0.03 0.04 0.06 0.05 0.04 0.02 0.02 0.01 0.01 0.02 0.03 0.03 0.02 0.02 0.02 0.03 0.04 0.04 0.03 0.03 0.03 0.02 0.02 0.01
0.00 0.00 0.00 0.00 0.00 0.01 0.00 0.01 0.02 0.03 0.03 0.04 0.05 0.06 0.10 0.07 0.03 0.02 0.03 0.03 0.02 0.02 0.02 0.02 0.02 0.03 0.03 0.05 0.06 0.06 0.04 0.02 0.02 0.02 0.04 0.03 0.03 0.01 0.01 0.01 0.01 0.01 0.02 0.02 0.03 0.02 0.01 0.01 0.01
0.00 0.00 0.00 0.00 0.00 0.00 0.01 0.02 0.04 0.05 0.02 0.02 0.03 0.07 0.09 0.05 0.04 0.04 0.04 0.04 0.03 0.02 0.01 0.01 0.04 0.05 0.04 0.04 0.06 0.06 0.04 0.03 0.04 0.03 0.05 0.05 0.04 0.03 0.02 0.01 0.01 0.02 0.02 0.02 0.03 0.03 0.03 0.03 0.03
0.00 0.00 0.00 0.00 0.00 0.00 0.01 0.03 0.05 0.06 0.03 0.02 0.02 0.04 0.06 0.04 0.03 0.03 0.03 0.03 0.04 0.03 0.01 0.01 0.04 0.06 0.05 0.05 0.05 0.05 0.04 0.02 0.03 0.04 0.07 0.13 0.12 0.07 0.04 0.04 0.04 0.03 0.03 0.02 0.01 0.02 0.03 0.03 0.03
0.00 0.00 0.00 0.00 0.00 0.00 0.00 0.01 0.03 0.05 0.06 0.05 0.02 0.06 0.12 0.06 0.03 0.02 0.02 0.02 0.02 0.01 0.01 0.01 0.01 0.05 0.05 0.05 0.04 0.04 0.03 0.03 0.03 0.02 0.03 0.09 0.12 0.08 0.06 0.05 0.05 0.05 0.04 0.04 0.02 0.02 0.02 0.03 0.04
0.01 0.01 0.00 0.00 0.00 0.00 0.00 0.01 0.02 0.03 0.09 0.16 0.09 0.07 0.09 0.06 0.04 0.02 0.02 0.01 0.02 0.01 0.01 0.00 0.01 0.02 0.03 0.03 0.03 0.02 0.01 0.02 0.02 0.02 0.02 0.03 0.04 0.05 0.05 0.05 0.05 0.05 0.05 0.05 0.04 0.04 0.03 0.02 0.04
0.01 0.01 0.01 0.01 0.00 0.01 0.01 0.01 0.01 0.03 0.05 0.10 0.10 0.07 0.06 0.11 0.07 0.03 0.02 0.01 0.01 0.00 0.01 0.00 0.01 0.01 0.02 0.02 0.02 0.01 0.01 0.01 0.01 0.02 0.03 0.03 0.04 0.04 0.05 0.04 0.04 0.05 0.05 0.05 0.04 0.03 0.02 0.01 0.02
0.01 0.01 0.01 0.02 0.01 0.01 0.01 0.01 0.01 0.02 0.03 0.03 0.05 0.05 0.07 0.07 0.06 0.03 0.02 0.01 0.01 0.01 0.01 0.01 0.01 0.01 0.01 0.02 0.01 0.01 0.01 0.01 0.02 0.03 0.03 0.05 0.06 0.06 0.05 0.05 0.03 0.04 0.04 0.05 0.05 0.04 0.03 0.02 0.01
0.01 0.02 0.01 0.01 0.01 0.01 0.01 0.01 0.01 0.02 0.02 0.06 0.07 0.04 0.09 0.08 0.08 0.07 0.04 0.03 0.03 0.02 0.02 0.03 0.03 0.03 0.02 0.03 0.03 0.02 0.03 0.03 0.04 0.05 0.05 0.07 0.07 0.06 0.05 0.05 0.04 0.04 0.04 0.04 0.04 0.04 0.03 0.03 0.02
0.01 0.03 0.02 0.02 0.01 0.01 0.02 0.03 0.03 0.04 0.03 0.03 0.05 0.05 0.08 0.08 0.09 0.13 0.06 0.03 0.04 0.04 0.05 0.05 0.04 0.06 0.09 0.08 0.05 0.06 0.06 0.06 0.10 0.13 0.12 0.09 0.08 0.06 0.05 0.06 0.06 0.05 0.04 0.03 0.03 0.03 0.03 0.03 0.02
0.01 0.01 0.02 0.01 0.01 0.02 0.03 0.03 0.03 0.04 0.05 0.04 0.05 0.07 0.07 0.06 0.07 0.08 0.05 0.04 0.04 0.06 0.08 0.10 0.10 0.11 0.12 0.10 0.07 0.08 0.12 0.14 0.13 0.12 0.12 0.08 0.07 0.05 0.04 0.04 0.05 0.04 0.03 0.02 0.01 0.02 0.02 0.03 0.03
0.01 0.01 0.01 0.01 0.01 0.03 0.03 0.04 0.05 0.05 0.06 0.04 0.06 0.11 0.10 0.06 0.04 0.05 0.04 0.03 0.05 0.09 0.12 0.11 0.09 0.09 0.10 0.09 0.08 0.09 0.11 0.08 0.04 0.04 0.04 0.04 0.04 0.04 0.02 0.02 0.02 0.02 0.02 0.02 0.01 0.01 0.01 0.02 0.03
0.01 0.01 0.01 0.01 0.01 0.03 0.03 0.06 0.07 0.06 0.07 0.05 0.06 0.09 0.13 0.05 0.03 0.03 0.02 0.02 0.04 0.08 0.13 0.14 0.09 0.11 0.14 0.12 0.07 0.05 0.04 0.03 0.03 0.03 0.02 0.02 0.02 0.02 0.03 0.02 0.02 0.02 0.01 0.01 0.01 0.01 0.01 0.01 0.02
0.00 0.01 0.01 0.01 0.02 0.03 0.04 0.06 0.08 0.07 0.10 0.10 0.09 0.06 0.06 0.04 0.03 0.03 0.03 0.04 0.06 0.07 0.07 0.07 0.07 0.10 0.10 0.06 0.04 0.04 0.03 0.03 0.03 0.03 0.03 0.04 0.06 0.06 0.04 0.04 0.03 0.03 0.02 0.02 0.01 0.01 0.02 0.01 0.01
0.01 0.01 0.02 0.03 0.04 0.04 0.06 0.07 0.08 0.05 0.06 0.06 0.06 0.05 0.04 0.04 0.04 0.05 0.06 0.06 0.05 0.05 0.05 0.03 0.03 0.03 0.04 0.03 0.03 0.03 0.03 0.03 0.03 0.04 0.07 0.09 0.10 0.08 0.05 0.04 0.04 0.04 0.04 0.03 0.02 0.02 0.02 0.01 0.02
0.00 0.01 0.03 0.04 0.04 0.05 0.06 0.10 0.13 0.07 0.06 0.06 0.06 0.06 0.06 0.05 0.05 0.06 0.06 0.05 0.05 0.04 0.04 0.02 0.02 0.02 0.02 0.02 0.02 0.03 0.02 0.02 0.02 0.02 0.04 0.06 0.08 0.06 0.03 0.03 0.03 0.04 0.03 0.02 0.02 0.02 0.02 0.02 0.02
0.01 0.01 0.03 0.04 0.04 0.06 0.08 0.12 0.13 0.08 0.07 0.09 0.07 0.06 0.05 0.05 0.05 0.07 0.08 0.08 0.07 0.05 0.04 0.04 0.03 0.02 0.01 0.02 0.02 0.02 0.02 0.02 0.02 0.02 0.02 0.02 0.02 0.03 0.03 0.03 0.03 0.02 0.02 0.02 0.01 0.01 0.01 0.02 0.02
0.01 0.03 0.04 0.05 0.07 0.07 0.10 0.13 0.12 0.09 0.08 0.08 0.05 0.04 0.05 0.05 0.05 0.07 0.11 0.13 0.11 0.07 0.05 0.05 0.05 0.04 0.03 0.03 0.03 0.03 0.03 0.03 0.03 0.03 0.02 0.02 0.02 0.03 0.03 0.04 0.03 0.03 0.03 0.02 0.02 0.01 0.01 0.02 0.02
0.02 0.03 0.04 0.06 0.07 0.09 0.10 0.10 0.09 0.13 0.10 0.07 0.03 0.02 0.03 0.03 0.05 0.08 0.11 0.13 0.13 0.10 0.09 0.08 0.07 0.07 0.06 0.04 0.05 0.04 0.05 0.05 0.05 0.04 0.02 0.02 0.03 0.03 0.03 0.04 0.03 0.02 0.02 0.01 0.02 0.02 0.01 0.01 0.02
0.01 0.02 0.03 0.04 0.05 0.07 0.09 0.10 0.09 0.09 0.09 0.07 0.04 0.04 0.03 0.04 0.05 0.06 0.09 0.10 0.12 0.14 0.13 0.11 0.08 0.06 0.06 0.05 0.06 0.06 0.05 0.06 0.06 0.05 0.04 0.04 0.05 0.04 0.04 0.04 0.02 0.01 0.01 0.01 0.02 0.02 0.02 0.02 0.01
MSLP
1011.61 1012.66 1013.81 1014.86 1015.59 1015.87 1015.62 1014.88 1013.80 1012.57 1011.43 1010.57 1010.10 1010.04 1010.33 1010.81 1011.33 1011.71 1011.87 1011.78 1011.51 1011.14 1010.81 1010.60 1010.57 1010.73 1011.02 1011.36 1011.67 1011.90 1012.04 1012.09 1012.11 1012.16 1012.27 1012.45 1012.70 1012.98 1013.23 1013.43 1013.56 1013.63 1013.67 1013.71 1013.80 1013.94 1014.14 1014.36 1014.57
1012.08 1013.31 1014.55 1015.57 1016.18 1016.26 1015.76 1014.77 1013.45 1012.03 1010.74 1009.77 1009.23 1009.12 1009.37 1009.83 1010.34 1010.74 1010.95 1010.97 1010.83 1010.62 1010.45 1010.40 1010.50 1010.75 1011.08 1011.42 1011.72 1011.94 1012.06 1012.12 1012.17 1012.25 1012.39 1012.59 1012.84 1013.09 1013.30 1013.45 1013.53 1013.56 1013.59 1013.65 1013.77 1013.95 1014.20 1014.46 1014.71
1012.67 1014.01 1015.26 1016.21 1016.67 1016.54 1015.83 1014.64 1013.14 1011.59 1010.22 1009.18 1008.59 1008.43 1008.62 1009.02 1009.47 1009.86 1010.09 1010.18 1010.16 1010.11 1010.10 1010.21 1010.44 1010.77 1011.14 1011.50 1011.79 1011.99 1012.11 1012.18 1012.24 1012.35 1012.50 1012.71 1012.94 1013.15 1013.31 1013.40 1013.44 1013.45 1013.47 1013.55 1013.71 1013.95 1014.25 1014.57 1014.86
1013.30 1014.67 1015.86 1016.68 1016.96 1016.65 1015.77 1014.44 1012.87 1011.29 1009.90 1008.87 1008.26 1008.06 1008.18 1008.49 1008.87 1009.19 1009.42 1009.55 1009.62 1009.70 1009.84 1010.09 1010.43 1010.84 1011.25 1011.61 1011.89 1012.07 1012.18 1012.25 1012.32 1012.44 1012.61 1012.82 1013.02 1013.20 1013.31 1013.36 1013.36 1013.35 1013.38 1013.49 1013.69 1013.98 1014.33 1014.69 1015.03
1013.88 1015.18 1016.25 1016.89 1017.00 1016.52 1015.54 1014.17 1012.62 1011.10 1009.80 1008.84 1008.26 1008.05 1008.10 1008.32 1008.59 1008.83 1009.01 1009.15 1009.28 1009.46 1009.72 1010.08 1010.52 1010.98 1011.41 1011.77 1012.02 1012.17 1012.26 1012.33 1012.41 1012.54 1012.71 1012.91 1013.10 1013.25 1013.33 1013.34 1013.32 1013.31 1013.35 1013.49 1013.72 1014.05 1014.43 1014.82 1015.18
1014.33 1015.49 1016.36 1016.80 1016.72 1016.13 1015.10 1013.79 1012.35 1011.00 1009.87 1009.06 1008.57 1008.37 1008.38 1008.50 1008.65 1008.79 1008.90 1009.02 1009.17 1009.42 1009.76 1010.20 1010.69 1011.18 1011.61 1011.94 1012.16 1012.28 1012.35 1012.41 1012.49 1012.63 1012.82 1013.01 1013.20 1013.32 1013.39 1013.38 1013.36 1013.35 1013.41 1013.56 1013.81 1014.16 1014.55 1014.94 1015.29
1014.59 1015.55 1016.18 1016.40 1016.16 1015.48 1014.48 1013.29 1012.06 1010.95 1010.07 1009.45 1009.08 1008.93 1008.90 1008.94 1008.97 1009.00 1009.03 1009.10 1009.25 1009.52 1009.91 1010.39 1010.90 1011.39 1011.80 1012.09 1012.28 1012.37 1012.42 1012.47 1012.57 1012.72 1012.92 1013.13 1013.31 1013.44 1013.49 1013.49 1013.47 1013.47 1013.53 1013.69 1013.95 1014.28 1014.65 1015.02 1015.33
1014.68 1015.38 1015.76 1015.76 1015.37 1014.66 1013.73 1012.72 1011.74 1010.92 1010.30 1009.90 1009.68 1009.59 1009.54 1009.49 1009.41 1009.33 1009.26 1009.28 1009.41 1009.68 1010.08 1010.57 1011.08 1011.55 1011.93 1012.19 1012.34 1012.41 1012.45 1012.51 1012.63 1012.80 1013.02 1013.25 1013.44 1013.57 1013.63 1013.63 1013.62 1013.63 1013.70 1013.86 1014.10 1014.41 1014.74 1015.05 1015.31
1014.61 1015.06 1015.19 1014.98 1014.48 1013.76 1012.93 1012.12 1011.41 1010.87 1010.52 1010.33 1010.24 1010.19 1010.12 1010.00 1009.82 1009.62 1009.47 1009.42 1009.52 1009.78 1010.17 1010.65 1011.15 1011.60 1011.95 1012.18 1012.31 1012.38 1012.43 1012.52 1012.67 1012.87 1013.12 1013.36 1013.57 1013.71 1013.77 1013.79 1013.78 1013.79 1013.87 1014.02 1014.24 1014.51 1014.79 1015.04 1015.24
1014.45 1014.67 1014.58 1014.20 1013.61 1012.91 1012.19 1011.56 1011.09 1010.80 1010.67 1010.65 1010.66 1010.63 1010.52 1010.32 1010.04 1009.76 1009.53 1009.43 1009.49 1009.73 1010.11 1010.58 1011.06 1011.49 1011.82 1012.05 1012.18 1012.27 1012.36 1012.48 1012.68 1012.92 1013.20 1013.46 1013.68 1013.82 1013.90 1013.91 1013.91 1013.93 1014.00 1014.14 1014.34 1014.58 1014.81 1015.02 1015.17
1014.26 1014.30 1014.03 1013.54 1012.89 1012.21 1011.59 1011.12 1010.83 1010.72 1010.74 1010.81 1010.86 1010.82 1010.65 1010.37 1010.01 1009.64 1009.36 1009.21 1009.25 1009.47 1009.85 1010.31 1010.78 1011.21 1011.55 1011.79 1011.96 1012.09 1012.23 1012.41 1012.66 1012.95 1013.25 1013.53 1013.75 1013.90 1013.97 1013.98 1013.99 1014.01 1014.09 1014.23 1014.42 1014.63 1014.84 1015.01 1015.12
1014.12 1014.02 1013.64 1013.06 1012.40 1011.74 1011.20 1010.83 1010.65 1010.63 1010.71 1010.80 1010.83 1010.73 1010.49 1010.13 1009.69 1009.27 1008.94 1008.78 1008.81 1009.03 1009.41 1009.87 1010.35 1010.79 1011.16 1011.44 1011.66 1011.86 1012.07 1012.32 1012.62 1012.94 1013.27 1013.56 1013.78 1013.92 1013.99 1014.00 1014.01 1014.04 1014.13 1014.27 1014.47 1014.68 1014.88 1015.04 1015.14
1014.05 1013.87 1013.43 1012.82 1012.15 1011.53 1011.03 1010.71 1010.56 1010.55 1010.60 1010.64 1010.58 1010.39 1010.06 1009.62 1009.13 1008.68 1008.34 1008.18 1008.22 1008.46 1008.85 1009.33 1009.83 1010.30 1010.71 1011.05 1011.34 1011.61 1011.89 1012.21 1012.55 1012.92 1013.26 1013.55 1013.76 1013.89 1013.95 1013.96 1013.98 1014.02 1014.13 1014.29 1014.51 1014.74 1014.95 1015.12 1015.22
1014.06 1013.86 1013.40 1012.79 1012.14 1011.54 1011.06 1010.73 1010.54 1010.46 1010.41 1010.33 1010.15 1009.85 1009.43 1008.92 1008.40 1007.95 1007.63 1007.50 1007.58 1007.84 1008.26 1008.76 1009.30 1009.81 1010.26 1010.66 1011.02 1011.37 1011.72 1012.09 1012.47 1012.86 1013.20 1013.49 1013.70 1013.82 1013.87 1013.89 1013.92 1013.99 1014.12 1014.31 1014.55 1014.81 1015.05 1015.23 1015.35
1014.14 1013.92 1013.48 1012.90 1012.28 1011.70 1011.21 1010.83 1010.56 1010.35 1010.15 1009.91 1009.59 1009.17 1008.66 1008.12 1007.60 1007.17 1006.90 1006.82 1006.95 1007.26 1007.71 1008.25 1008.81 1009.36 1009.87 1010.33 1010.75 1011.15 1011.56 1011.96 1012.37 1012.76 1013.11 1013.39 1013.59 1013.71 1013.78 1013.81 1013.87 1013.96 1014.12 1014.34 1014.61 1014.89 1015.15 1015.36 1015.51
1014.21 1014.01 1013.60 1013.07 1012.49 1011.92 1011.40 1010.95 1010.56 1010.19 1009.82 1009.41 1008.93 1008.40 1007.84 1007.28 1006.79 1006.42 1006.22 1006.21 1006.39 1006.74 1007.23 1007.80 1008.39 1008.98 1009.53 1010.04 1010.51 1010.96 1011.40 1011.83 1012.25 1012.64 1012.98 1013.25 1013.45 1013.59 1013.68 1013.74 1013.83 1013.96 1014.14 1014.39 1014.67 1014.97 1015.25 1015.48 1015.64
1014.23 1014.04 1013.68 1013.21 1012.68 1012.13 1011.58 1011.04 1010.51 1009.97 1009.41 1008.83 1008.21 1007.59 1006.99 1006.44 1006.00 1005.70 1005.58 1005.64 1005.89 1006.29 1006.81 1007.40 1008.02 1008.64 1009.22 1009.77 1010.29 1010.77 1011.23 1011.67 1012.09 1012.47 1012.80 1013.08 1013.30 1013.46 1013.58 1013.69 1013.82 1013.98 1014.19 1014.45 1014.74 1015.04 1015.32 1015.55 1015.72
1014.14 1013.97 1013.68 1013.29 1012.82 1012.28 1011.70 1011.07 1010.39 1009.68 1008.94 1008.19 1007.45 1006.75 1006.13 1005.61 1005.23 1005.01 1004.97 1005.11 1005.40 1005.84 1006.38 1006.99 1007.63 1008.27 1008.89 1009.48 1010.03 1010.54 1011.02 1011.46 1011.88 1012.26 1012.59 1012.88 1013.12 1013.32 1013.49 1013.65 1013.82 1014.02 1014.25 1014.51 1014.80 1015.08 1015.35 1015.58 1015.75
1013.89 1013.77 1013.56 1013.26 1012.87 1012.37 1011.75 1011.03 1010.22 1009.33 1008.41 1007.51 1006.66 1005.90 1005.26 1004.78 1004.46 1004.31 1004.34 1004.53 1004.86 1005.32 1005.87 1006.49 1007.15 1007.82 1008.47 1009.10 1009.69 1010.23 1010.74 1011.19 1011.61 1011.99 1012.34 1012.65 1012.92 1013.17 1013.40 1013.61 1013.83 1014.06 1014.31 1014.56 1014.83 1015.09 1015.34 1015.55 1015.72
1013.46 1013.43 1013.34 1013.16 1012.85 1012.39 1011.76 1010.95 1010.00 1008.96 1007.88 1006.83 1005.88 1005.06 1004.41 1003.95 1003.67 1003.57 1003.64 1003.86 1004.20 1004.66 1005.21 1005.83 1006.50 1007.20 1007.90 1008.58 1009.23 1009.82 1010.36 1010.85 1011.29 1011.69 1012.05 1012.39 1012.70 1013.00 1013.28 1013.56 1013.82 1014.08 1014.33 1014.57 1014.82 1015.05 1015.27 1015.47 1015.65
1012.88 1012.97 1013.03 1013.00 1012.80 1012.39 1011.75 1010.87 1009.80 1008.60 1007.37 1006.20 1005.14 1004.27 1003.60 1003.14 1002.88 1002.79 1002.86 1003.07 1003.39 1003.82 1004.35 1004.96 1005.65 1006.39 1007.15 1007.90 1008.62 1009.29 1009.90 1010.43 1010.91 1011.33 1011.72 1012.09 1012.45 1012.80 1013.13 1013.45 1013.75 1014.03 1014.28 1014.52 1014.74 1014.95 1015.15 1015.35 1015.54
1012.18 1012.45 1012.69 1012.81 1012.74 1012.39 1011.74 1010.80 1009.62 1008.30 1006.95 1005.66 1004.52 1003.58 1002.87 1002.39 1002.11 1002.00 1002.03 1002.19 1002.45 1002.83 1003.31 1003.91 1004.61 1005.40 1006.23 1007.07 1007.89 1008.66 1009.34 1009.95 1010.47 1010.94 1011.37 1011.77 1012.16 1012.55 1012.92 1013.27 1013.60 1013.90 1014.15 1014.37 1014.58 1014.77 1014.96 1015.16 1015.37
1011.44 1011.90 1012.33 1012.63 1012.67 1012.39 1011.74 1010.75 1009.50 1008.08 1006.62 1005.24 1004.03 1003.04 1002.29 1001.77 1001.44 1001.26 1001.22 1001.28 1001.45 1001.74 1002.17 1002.74 1003.45 1004.29 1005.20 1006.14 1007.07 1007.94 1008.73 1009.42 1010.01 1010.52 1010.98 1011.42 1011.83 1012.24 1012.64 1013.01 1013.35 1013.65 1013.91 1014.13 1014.32 1014.50 1014.69 1014.91 1015.14
1010.72 1011.37 1011.99 1012.43 1012.58 1012.35 1011.71 1010.70 1009.39 1007.91 1006.39 1004.96 1003.71 1002.68 1001.89 1001.31 1000.91 1000.64 1000.48 1000.42 1000.47 1000.66 1001.01 1001.54 1002.26 1003.13 1004.12 1005.17 1006.21 1007.20 1008.09 1008.86 1009.52 1010.08 1010.57 1011.02 1011.45 1011.87 1012.27 1012.65 1013.00 1013.30 1013.56 1013.77 1013.96 1014.15 1014.35 1014.57 1014.84
1010.07 1010.88 1011.63 1012.19 1012.40 1012.21 1011.58 1010.56 1009.24 1007.75 1006.22 1004.79 1003.54 1002.50 1001.67 1001.04 1000.55 1000.17 999.88 999.68 999.60 999.67 999.93 1000.41 1001.13 1002.04 1003.10 1004.24 1005.39 1006.48 1007.47 1008.32 1009.03 1009.63 1010.15 1010.61 1011.04 1011.45 1011.85 1012.22 1012.56 1012.86 1013.11 1013.33 1013.52 1013.71 1013.92 1014.16 1014.43
1009.51 1010.42 1011.24 1011.84 1012.08 1011.90 1011.27 1010.26 1008.97 1007.52 1006.05 1004.67 1003.46 1002.44 1001.61 1000.93 1000.36 999.87 999.44 999.10 998.88 998.83 999.01 999.45 1000.15 1001.10 1002.21 1003.43 1004.66 1005.84 1006.90 1007.81 1008.57 1009.20 1009.73 1010.18 1010.60 1011.00 1011.38 1011.74 1012.07 1012.36 1012.61 1012.83 1013.02 1013.21 1013.42 1013.67 1013.95
1009.02 1009.94 1010.75 1011.32 1011.53 1011.32 1010.70 1009.72 1008.49 1007.13 1005.77 1004.50 1003.38 1002.43 1001.62 1000.92 1000.29 999.69 999.15 998.67 998.33 998.19 998.30 998.70 999.40 1000.36 1001.53 1002.80 1004.09 1005.33 1006.43 1007.38 1008.17 1008.81 1009.33 1009.78 1010.18 1010.56 1010.93 1011.27 1011.58 1011.86 1012.11 1012.32 1012.51 1012.70 1012.91 1013.15 1013.42
1008.56 1009.40 1010.11 1010.57 1010.69 1010.43 1009.80 1008.87 1007.73 1006.51 1005.31 1004.20 1003.22 1002.36 1001.61 1000.91 1000.23 999.57 998.93 998.36 997.94 997.73 997.80 998.18 998.90 999.88 1001.08 1002.39 1003.72 1004.98 1006.11 1007.06 1007.85 1008.48 1008.99 1009.43 1009.82 1010.18 1010.52 1010.85 1011.15 1011.41 1011.64 1011.85 1012.03 1012.21 1012.41 1012.63 1012.87
1008.04 1008.72 1009.26 1009.55 1009.53 1009.19 1008.55 1007.68 1006.67 1005.61 1004.61 1003.69 1002.87 1002.14 1001.46 1000.79 1000.11 999.40 998.72 998.11 997.65 997.42 997.50 997.91 998.65 999.68 1000.90 1002.23 1003.57 1004.83 1005.94 1006.88 1007.64 1008.25 1008.75 1009.17 1009.54 1009.88 1010.21 1010.52 1010.81 1011.06 1011.27 1011.46 1011.63 1011.79 1011.96 1012.15 1012.36
1007.41 1007.87 1008.18 1008.26 1008.08 1007.65 1006.99 1006.19 1005.32 1004.45 1003.65 1002.94 1002.31 1001.72 1001.13 1000.51 999.85 999.14 998.45 997.85 997.42 997.24 997.37 997.84 998.65 999.72 1000.98 1002.32 1003.64 1004.87 1005.95 1006.85 1007.57 1008.15 1008.61 1009.01 1009.36 1009.70 1010.02 1010.31 1010.58 1010.81 1011.01 1011.17 1011.31 1011.45 1011.59 1011.74 1011.91
Thickness
5813 5813 5810 5800 5780 5762 5763 5783 5800 5805 5809 5818 5823 5816 5804 5796 5787 5777 5799 5807 5805 5802 5799 5797 5796 5794 5792 5790 5788 5786 5784 5782 5780 5778 5777 5774 5772 5770 5769 5768 5766 5765 5764 5762 5761 5760 5759 5759 5758
5813 5812 5803 5787 5765 5749 5763 5789 5798 5808 5815 5821 5822 5816 5805 5797 5803 5800 5801 5804 5804 5801 5798 5796 5794 5793 5790 5788 5786 5784 5782 5780 5778 5776 5774 5772 5770 5768 5766 5765 5763 5762 5761 5759 5758 5758 5758 5757 5756
5813 5811 5790 5774 5762 5756 5772 5795 5804 5816 5824 5822 5814 5813 5805 5798 5804 5804 5805 5805 5802 5798 5796 5794 5792 5790 5788 5786 5784 5782 5780 5778 5776 5773 5771 5770 5768 5766 5764 5763 5761 5759 5758 5757 5756 5755 5755 5755 5755
5808 5796 5784 5766 5763 5778 5791 5802 5812 5813 5818 5822 5814 5801 5805 5812 5812 5809 5807 5804 5799 5795 5793 5791 5790 5788 5785 5783 5781 5780 5778 5776 5773 5771 5769 5767 5765 5764 5762 5760 5758 5757 5755 5754 5754 5753 5753 5753 5753
5802 5783 5768 5758 5768 5789 5805 5814 5816 5810 5812 5816 5812 5795 5795 5810 5815 5810 5805 5802 5798 5793 5791 5788 5787 5785 5783 5781 5779 5777 5775 5773 5771 5769 5766 5764 5763 5761 5759 5758 5756 5754 5753 5752 5750 5750 5749 5750 5750
5786 5774 5755 5751 5771 5796 5809 5818 5817 5811 5810 5812 5808 5795 5792 5807 5807 5806 5804 5800 5798 5793 5789 5786 5783 5782 5780 5779 5777 5775 5772 5770 5768 5766 5764 5762 5760 5759 5757 5755 5753 5751 5750 5749 5748 5747 5746 5746 5746
5778 5767 5758 5765 5773 5788 5807 5820 5816 5811 5806 5810 5812 5792 5792 5800 5805 5806 5802 5798 5795 5792 5788 5784 5782 5780 5778 5777 5774 5772 5770 5768 5766 5764 5762 5759 5757 5756 5754 5752 5751 5749 5747 5746 5745 5744 5743 5742 5742
5789 5770 5764 5767 5775 5787 5811 5819 5821 5816 5810 5820 5817 5795 5789 5800 5806 5803 5798 5794 5790 5788 5785 5783 5781 5778 5777 5774 5771 5769 5767 5765 5763 5761 5759 5757 5755 5753 5751 5750 5748 5746 5744 5743 5742 5741 5740 5740 5739
5794 5762 5754 5769 5780 5792 5809 5810 5817 5824 5816 5815 5816 5810 5810 5810 5805 5796 5790 5786 5783 5783 5782 5781 5779 5776 5774 5771 5769 5766 5764 5762 5760 5758 5756 5754 5752 5750 5748 5746 5745 5743 5741 5740 5739 5738 5738 5737 5737
5779 5756 5769 5790 5797 5799 5805 5807 5811 5808 5802 5801 5803 5808 5810 5805 5799 5790 5785 5781 5779 5778 5778 5778 5777 5775 5772 5770 5767 5764 5761 5759 5757 5755 5753 5750 5748 5746 5745 5743 5741 5739 5738 5736 5735 5735 5734 5734 5733
5781 5772 5787 5799 5808 5807 5804 5807 5812 5802 5792 5797 5797 5799 5803 5799 5793 5788 5784 5782 5779 5778 5777 5775 5774 5773 5771 5768 5765 5761 5758 5756 5754 5752 5750 5747 5745 5743 5741 5740 5738 5736 5734 5732 5732 5731 5731 5730 5730
5783 5789 5797 5803 5812 5809 5806 5808 5805 5804 5804 5812 5810 5807 5802 5796 5790 5787 5784 5780 5779 5777 5776 5775 5773 5771 5768 5766 5763 5759 5755 5753 5750 5748 5746 5744 5741 5739 5737 5736 5734 5732 5731 5729 5728 5727 5727 5727 5726
5782 5788 5800 5807 5808 5809 5809 5806 5804 5804 5812 5813 5809 5803 5798 5795 5790 5789 5786 5781 5778 5775 5774 5773 5772 5769 5766 5763 5760 5756 5753 5750 5747 5745 5742 5740 5738 5735 5733 5731 5730 5729 5727 5726 5725 5724 5723 5722 5722
5784 5789 5795 5802 5804 5808 5802 5801 5800 5801 5811 5808 5802 5797 5796 5793 5790 5787 5783 5779 5777 5776 5774 5773 5770 5768 5764 5760 5757 5754 5751 5747 5744 5742 5740 5738 5735 5732 5729 5727 5726 5725 5724 5722 5722 5721 5719 5719 5718
5786 5780 5785 5795 5800 5803 5799 5786 5792 5803 5805 5799 5796 5794 5793 5790 5789 5786 5784 5781 5779 5776 5774 5771 5768 5765 5761 5757 5754 5751 5748 5745 5742 5739 5736 5735 5732 5730 5727 5724 5722 5721 5720 5719 5718 5717 5715 5714 5713
5773 5764 5759 5784 5795 5799 5786 5767 5791 5803 5798 5791 5791 5791 5788 5788 5787 5787 5784 5782 5779 5775 5772 5769 5768 5762 5758 5755 5752 5749 5746 5743 5739 5737 5734 5732 5730 5727 5724 5721 5719 5718 5716 5715 5713 5712 5710 5708 5707
5749 5741 5748 5768 5790 5792 5780 5768 5789 5798 5794 5788 5788 5787 5786 5784 5783 5783 5782 5780 5778 5775 5771 5767 5764 5760 5756 5753 5749 5746 5743 5739 5736 5734 5731 5728 5726 5724 5721 5718 5716 5714 5712 5710 5709 5707 5705 5703 5702
5731 5737 5746 5755 5778 5782 5772 5772 5784 5791 5789 5786 5786 5785 5784 5782 5780 5780 5780 5778 5776 5773 5769 5765 5761 5756 5753 5749 5745 5741 5738 5735 5733 5730 5727 5725 5723 5720 5717 5715 5712 5710 5708 5705 5704 5702 5701 5699 5698
5746 5741 5741 5758 5778 5771 5766 5768 5777 5784 5783 5781 5781 5780 5780 5779 5780 5778 5776 5775 5771 5767 5763 5759 5754 5751 5748 5744 5740 5736 5732 5730 5728 5727 5724 5722 5719 5717 5714 5711 5708 5706 5704 5701 5699 5697 5695 5693 5693
5746 5738 5741 5755 5773 5769 5762 5765 5776 5780 5781 5783 5781 5780 5779 5775 5773 5771 5770 5768 5765 5762 5760 5756 5752 5748 5745 5741 5738 5735 5731 5727 5725 5723 5720 5719 5717 5714 5711 5708 5705 5703 5700 5697 5695 5693 5689 5688 5688
5744 5740 5743 5748 5761 5765 5759 5751 5763 5774 5779 5781 5782 5781 5781 5777 5771 5768 5767 5765 5762 5759 5756 5754 5749 5746 5742 5739 5735 5731 5726 5722 5719 5717 5715 5714 5713 5711 5708 5706 5702 5699 5696 5692 5690 5688 5685 5681 5681
5735 5754 5755 5752 5741 5734 5747 5722 5746 5761 5764 5769 5771 5773 5775 5775 5772 5768 5765 5763 5761 5758 5756 5752 5748 5744 5740 5736 5731 5726 5721 5717 5715 5714 5712 5711 5709 5707 5705 5702 5699 5696 5693 5689 5686 5684 5682 5679 5676
5749 5760 5755 5751 5739 5729 5733 5721 5732 5750 5749 5757 5764 5769 5772 5773 5770 5766 5764 5762 5759 5756 5753 5749 5745 5741 5737 5734 5730 5725 5720 5717 5713 5711 5709 5706 5705 5703 5701 5698 5695 5692 5689 5686 5683 5680 5678 5676 5673
5761 5753 5745 5735 5722 5707 5724 5717 5719 5733 5744 5752 5758 5764 5767 5767 5766 5762 5761 5758 5754 5751 5748 5745 5740 5737 5734 5731 5727 5724 5719 5714 5710 5707 5704 5702 5699 5698 5696 5694 5691 5688 5685 5682 5680 5677 5674 5672 5670
5750 5723 5701 5697 5692 5698 5724 5717 5720 5743 5753 5755 5755 5756 5758 5759 5758 5755 5753 5751 5748 5745 5743 5741 5737 5733 5731 5728 5725 5722 5718 5714 5709 5705 5701 5698 5695 5693 5692 5690 5687 5684 5682 5679 5676 5673 5671 5668 5666
5740 5725 5696 5684 5685 5696 5714 5709 5725 5747 5754 5756 5755 5753 5752 5751 5751 5750 5748 5746 5744 5742 5739 5737 5734 5731 5729 5726 5722 5720 5716 5712 5708 5704 5701 5697 5694 5692 5690 5687 5684 5681 5678 5676 5672 5669 5667 5665 5662
5735 5724 5725 5703 5698 5689 5697 5711 5726 5741 5744 5746 5746 5746 5744 5744 5746 5745 5744 5742 5741 5738 5736 5735 5732 5729 5727 5724 5720 5716 5713 5710 5706 5703 5700 5696 5693 5690 5687 5684 5680 5677 5674 5671 5668 5664 5662 5660 5658
5745 5733 5710 5696 5683 5679 5692 5700 5707 5722 5728 5734 5735 5736 5738 5739 5740 5740 5740 5739 5738 5736 5734 5733 5730 5727 5723 5721 5718 5715 5711 5708 5705 5701 5697 5694 5691 5688 5684 5681 5677 5674 5671 5668 5664 5660 5658 5655 5654
5732 5723 5710 5697 5695 5682 5676 5691 5722 5722 5725 5727 5730 5733 5734 5734 5735 5735 5735 5735 5733 5732 5730 5727 5725 5722 5718 5717 5714 5712 5709 5706 5703 5698 5695 5692 5688 5685 5682 5679 5675 5671 5667 5664 5660 5656 5654 5651 5649
5736 5725 5711 5695 5691 5691 5683 5691 5727 5726 5725 5726 5727 5729 5731 5731 5731 5731 5731 5730 5728 5724 5722 5720 5718 5717 5715 5713 5711 5708 5705 5703 5699 5696 5693 5690 5686 5683 5680 5676 5672 5669 5665 5661 5657 5653 5650 5647 5644